Regional Weather Roundup
Issued by NWS Tiyan, Guam

Home | Current Version | Previous Version | Text Only | Print | Product List | Glossary On
Versions: 1 2 3 4 5 6 7 8 9 10 11 12 13 14 15 16 17 18 19 20 21 22 23 24 25 26 27 28 29 30 31 32 33 34 35 36 37 38 39 40 41 42 43 44 45 46
000
ASGM40 PGUM 220712
RWRGUM
WEATHER ROUNDUP FOR THE MARIANAS
NATIONAL WEATHER SERVICE TIYAN GU
500 PM CHST TUE JUL 22 2014

GUZ001>004-220800-
MARIANA ISLANDS-

CITY           SKY/WX    TMP DP  RH WIND       PRES   REMARKS
GUAM AIRPORT   MOSUNNY   86  79  79 E10       29.80S HX  99
ANDERSEN AFB   MOSUNNY   84  79  84 E13       29.80S HX  96
ROTA AIRPORT   MOSUNNY   84  77  79 E14       29.80F HX  94
TINIAN AP      MOSUNNY   86  77  74 NE12      29.78F HX  97
SAIPAN AP      MOSUNNY   86  77  74 E14       29.80S HX  97

$$



USA.gov is the U.S. government's official web portal to all federal, state and local government web resources and services.